Location: Ladrillo (historical)
(32.8195°N, 117.2231°W)
Time: 22:52:41
(UTC+00:00)

X-37B - Pass Details

Date: 23 January 2021
Orbit: 383 x 391 km, 45.0° (Epoch: 10 February)

Event Time Altitude Azimuth Distance (km) Brightness Sun altitude
Rises 02:24:51 0° 293° (WNW) 2,270 5.4 -15.3°
Reaches altitude 10° 02:28:14 10° 332° (NNW) 1,419 3.6 -16.0°
Maximum altitude 02:29:13 11° 350° (N) 1,358 3.3 -16.2°
Enters shadow 02:30:00 10° 4° (N) 1,398 3.2 -16.3°
